Location: Camerons Lookout
(40.9833°S, 175.9333°E)
Time: 15:07:50
(UTC+00:00)

Atlas Centaur 2 - Visible Passes

Search period start: 19 April 2026 00:00
Search period end: 29 April 2026 00:00
Orbit: 456 x 1247 km, 30.4° (Epoch: 19 April)

Date Brightness Start Highest point End Pass type
(mag) Time Alt. Az. Time Alt. Az. Time Alt. Az.
19 Apr 4.0 16:14:32 27° N 16:14:32 27° N 16:19:21 10° NE visible
19 Apr 4.6 17:57:51 10° NW 18:00:41 12° NNW 18:03:23 10° N visible
20 Apr 4.3 16:01:13 23° N 16:01:13 23° N 16:04:53 10° NE visible
20 Apr 4.7 17:43:51 10° NW 17:46:09 11° NW 17:48:23 10° NNW visible
21 Apr 4.6 15:47:58 18° NNE 15:47:58 18° NNE 15:50:19 10° NNE visible
21 Apr 4.7 17:30:14 10° NW 17:31:37 11° NW 17:32:58 10° NNW visible
22 Apr 5.0 15:34:43 13° NNE 15:34:43 13° NNE 15:35:43 10° NNE visible
